sat.trackr.live / text

‹ back to catalog

STARLINK-4501

NORAD 53553 · 2022-101AC

PAYLOAD ACTIVE UNKNOWN

§ Identity

Operator
Country
US
Launch date
2022-08-19
Launch site
AFETR
Launch vehicle
Mass (kg)
RCS (m²)

Purposes: comms

External: N2YO · Heavens-Above · Gunter

§ Orbital elements

Epoch: 2026-09-19T16:13:42.195648Z

Period
95.44 min
Inclination
53.1601°
Eccentricity
0.0001235
Mean motion
15.08831057 rev/d
Perigee alt
538.9 km
Apogee alt
540.6 km
Semi-major
6,917.9 km
B*
3.4195e-5
RAAN
272.5002°
Arg perigee
76.0478°
Mean anomaly
284.0651°
Rev number
22,625

§ Raw data

STARLINK-45011 53553U 22101AC  26262.67618282  .00000256  00000+0  34195-4 0  99932 53553  53.1601 272.5002 0001235  76.0478 284.0651 15.08831057226251

JSON: /api/v1/satellites/53553 · /tle

For live sub-satellite position, see the globe view (requires WebGL).

§ Visibility from observer

Set your observer location to see the next 7 days of passes ≥ 10°. The values pass through the URL so the page stays shareable.

No JS? Fill the form by hand. The geolocation button needs JavaScript.